Find Starlink 32780

NORAD ID: 62746 Int'l Des: 2025-014 Owner: SPXS Country: US Constellation: starlink operational
LEOCIRCULAR

現在のビュー

3D地球を読み込み中...

About Starlink 32780

Starlink 32780 (NORAD 62746) is a starlink constellation satellite (v2 mini) launched Jan 21, 2025 by SPXS of US. It operates in LEO, CIRCULAR orbit with a mass of 730.00 kg.

次回通過

Passes for default location (London). Set your location on the main map for personalized predictions.

高度履歴

Loading altitude history...

軌道要素

1 62746U 25014M 26263.93690354 .00015479 00000-0 57068-3 0 9990
2 62746 42.9993 132.1040 0001194 264.6059 95.4656 15.27588696 93117
Epoch: Sep 20, 2026 • Age: 12 hours

現在のステータス

高度 493.1 km
遠地点 / 近地点 N/A
速度 7.62 km/s
衛星直下点 -37.02°S, 86.23°W
打ち上げ日 Jan 21, 2025
運用期間 1.6 years
タイプ internet

技術仕様

分類 Payload
質量 730.00 kg
乾燥質量 700.00 kg
長さ 0.30 m
スパン 29.00 m
形状 ? Box + pan
製造者 SPXS
バスタイプ Starlink V2M
フェーズステータス In Orbit
所有者/国 SPXS/US

Most Searched